Regional Weather Roundup
Issued by NWS

Home | Current Version | Previous Version | Text Only | Print | Product List | Glossary On
Versions: 1 2 3 4 5 6 7 8 9 10 11 12 13 14 15 16 17 18 19 20 21 22 23 24 25 26 27 28 29 30 31 32 33 34 35 36 37 38 39 40 41 42 43 44 45 46 47 48 49 50
000
ASUS42 KKEY 231110
RWRKEY

FLORIDA REGIONAL WEATHER ROUNDUP FOR THE FLORIDA KEYS
NATIONAL WEATHER SERVICE KEY WEST FLORIDA
700 AM EDT SAT AUG 23 2014

...SOUTH FLORIDA AND THE KEYS...

CITY           SKY/WX    TMP DP  RH WIND       PRES   REMARKS
FORT MYERS     CLEAR     77  74  90 CALM      29.96R
SW REGIONAL AP CLEAR     77  73  87 CALM      29.96S
NAPLES         CLEAR     77  74  90 CALM      29.96R
MIAMI          PTCLDY    80  73  79 NW3       29.96S
WEST KENDALL   CLEAR     78  73  84 CALM      29.95S
HOMESTEAD      CLEAR     78  73  84 NW5       29.95S
MARATHON       CLEAR     84  74  71 NE5       29.94S HX  91
BOCA CHICA NAS PTCLDY    83  74  74 NE6       29.95R
KEY WEST INTL  CLEAR     83  75  77 N3        29.95R HX  90

...INTERNATIONAL WEATHER...

CITY           SKY/WX    TMP DP  RH WIND       PRES   REMARKS
NASSAU BAHAMAS MOCLDY    82  75  78 NE5       29.92R
CANCUN MEXICO  CLEAR     75  73  94 CALM      29.92S
COZUMEL MEXICO PTCLDY    72  72 100 CALM      29.92S

ADJACENT COASTAL WATERS...

STATION/POSITION TIME  SKY/WX   TEMP    WIND        PRES    WAVE
                                AIR SEA DIR/SP/G            HT/PER
                 (UTC)          (F)     (DEG/KT/KT) (MB)    (FT/S)
PULASKI SHOAL LI 1100            84     140/  3/  4 1014.4R
SAND KEY         1100            84      50/  6/ 10 1014.1R
SOMBRERO KEY     1100            85      50/  8/ 10 1014.6R
LONG KEY         1000            85 88   70/  5/  6 1014.6R
MOLASSES REEF    1100            85 87   60/  8/  9 1014.0R
FOWEY ROCKS      1100            85 87   80/ 10/ 10 1014.3F
Buoy 42080       NOT AVBL

$$


USA.gov is the U.S. government's official web portal to all federal, state and local government web resources and services.